GW6385 Weather Reports


time (UTC)temp
C
wind
direction
speed
KPH
gust
KPH
rain 1hr
cm
rain 24hr
cm
rain mn
cm
humidity
%
barometer
mb
20260510204400 18 7 6.4 22.5 0.00 0.00 0.00 42 290.0
20260510203344 17 19 11.3 22.5 0.00 0.00 0.00 40 300.2
20260510202843 17 16 11.3 22.5 0.00 0.00 0.00 40 296.6
20260510202342 17 8 9.7 22.5 0.00 0.00 0.00 40 308.2
20260510201842 17 10 11.3 22.5 0.00 0.00 0.00 40 275.7
20260510201341 17 33 11.3 22.5 0.00 0.00 0.00 40 297.2
20260510200840 17 23 8.0 22.5 0.00 0.00 0.00 41 299.0
20260510200339 17 18 12.9 22.5 0.00 0.00 0.00 40 310.0
20260510195839 17 30 9.7 22.5 0.00 0.00 0.00 41 331.2
20260510195339 17 9 16.1 22.5 0.00 0.00 0.00 38 383.3
20260510194838 17 7 16.1 22.5 0.00 0.00 0.00 39 428.5
20260510194337 17 17 9.7 22.5 0.00 0.00 0.00 42 419.7
20260510193836 17 7 12.9 22.5 0.00 0.00 0.00 41 464.5
20260510193336 17 2 16.1 22.5 0.00 0.00 0.00 41 503.6
20260510192320 17 16 11.3 22.5 0.00 0.00 0.00 41 337.2
20260510191304 17 19 6.4 22.5 0.00 0.00 0.00 44 377.9
20260510190803 17 7 12.9 20.9 0.00 0.00 0.00 43 500.2
20260510190303 17 1 16.1 20.9 0.00 0.00 0.00 42 551.5
20260510185802 17 22 8.0 20.9 0.00 0.00 0.00 44 336.7
20260510185301 17 0 14.5 20.9 0.00 0.00 0.00 44 364.3
20260510184801 17 16 8.0 20.9 0.00 0.00 0.00 45 270.6
20260510184257 17 18 9.7 20.9 0.00 0.00 0.00 44 293.7
20260510182724 17 11 12.9 20.9 0.00 0.00 0.00 44 325.8
20260510182223 17 6 11.3 20.9 0.00 0.00 0.00 42 304.1
20260510181207 17 9 12.9 22.5 0.00 0.00 0.00 43 332.4
20260510180206 17 22 11.3 17.7 0.00 0.00 0.00 43 309.4
20260510175706 17 12 14.5 17.7 0.00 0.00 0.00 41 326.9
20260510174134 17 6 8.0 17.7 0.00 0.00 0.00 45 418.1
20260510173634 17 4 11.3 17.7 0.00 0.00 0.00 43 361.8
20260510172617 17 21 8.0 17.7 0.00 0.00 0.00 43 301.4
20260510172116 17 41 8.0 20.9 0.00 0.00 0.00 44 287.0
20260510171615 17 27 11.3 20.9 0.00 0.00 0.00 42 278.7
20260510170559 17 27 8.0 20.9 0.00 0.00 0.00 43 292.2
20260510170058 17 23 6.4 20.9 0.00 0.00 0.00 43 268.6
20260510165042 17 36 8.0 20.9 0.00 0.00 0.00 42 293.5
20260510164026 17 24 11.3 20.9 0.00 0.00 0.00 41 303.1
20260510163525 17 9 16.1 20.9 0.00 0.00 0.00 39 333.0
20260510163025 17 22 9.7 20.9 0.00 0.00 0.00 42 335.2
20260510162525 17 24 11.3 24.1 0.00 0.00 0.00 41 296.7
20260510162027 17 23 11.3 24.1 0.00 0.00 0.00 40 305.3
20260510161524 17 61 9.7 20.9 0.00 0.00 0.00 43 315.0
20260510161024 17 45 9.7 20.9 0.00 0.00 0.00 41 309.0
20260510160520 17 36 9.7 25.7 0.00 0.00 0.00 42 302.2
20260510160019 17 29 11.3 25.7 0.00 0.00 0.00 42 302.2
20260510155519 16 47 6.4 22.5 0.00 0.00 0.00 45 325.5
20260510155018 16 36 11.3 22.5 0.00 0.00 0.00 43 298.4
20260510154517 16 33 11.3 25.7 0.00 0.00 0.00 44 287.8
20260510154017 16 35 16.1 25.7 0.00 0.00 0.00 42 286.9
20260510153516 16 29 8.0 20.9 0.00 0.00 0.00 46 300.6
20260510151943 15 46 8.0 19.3 0.00 0.00 0.00 46 307.7
20260510151442 15 55 8.0 19.3 0.00 0.00 0.00 47 313.7
20260510150941 15 52 8.0 22.5 0.00 0.00 0.00 46 307.2
20260510150440 15 48 6.4 22.5 0.00 0.00 0.00 47 305.3
20260510145939 15 48 11.3 20.9 0.00 0.00 0.00 45 297.2
20260510145438 15 39 9.7 20.9 0.00 0.00 0.00 48 301.9
20260510144937 15 57 8.0 20.9 0.00 0.00 0.00 48 313.5
20260510144436 15 46 6.4 19.3 0.00 0.00 0.00 50 311.8
20260510142905 15 41 9.7 19.3 0.00 0.00 0.00 50 272.1
20260510142404 14 40 8.0 20.9 0.00 0.00 0.00 50 278.8
20260510141904 14 37 8.0 20.9 0.00 0.00 0.00 50 280.1
20260510140332 14 36 8.0 20.9 0.00 0.00 0.00 51 291.6
20260510135832 14 43 9.7 20.9 0.00 0.00 0.00 50 298.1
20260510135332 14 45 8.0 19.3 0.00 0.00 0.00 52 306.4
20260510134831 14 36 9.7 20.9 0.00 0.00 0.00 52 295.1
20260510134330 14 32 12.9 20.9 0.00 0.00 0.00 51 282.3
20260510133830 14 27 9.7 20.9 0.00 0.00 0.00 52 276.3
20260510133329 14 22 11.3 24.1 0.00 0.00 0.00 53 267.0
20260510132828 14 27 11.3 24.1 0.00 0.00 0.00 52 271.2
20260510132328 14 25 9.7 24.1 0.00 0.00 0.00 53 289.9
20260510131828 14 29 12.9 24.1 0.00 0.00 0.00 52 273.2
20260510130812 14 25 11.3 25.7 0.00 0.00 0.00 52 289.2
20260510130312 14 35 8.0 25.7 0.00 0.00 0.00 54 292.6
20260510125812 14 32 11.3 22.5 0.00 0.00 0.00 55 280.8
20260510125312 14 30 12.9 24.1 0.00 0.00 0.00 55 274.9
20260510124811 14 28 11.3 24.1 0.00 0.00 0.00 55 283.2
20260510124311 14 27 8.0 19.3 0.00 0.00 0.00 56 277.8
20260510123811 14 30 11.3 19.3 0.00 0.00 0.00 57 270.8
20260510123310 13 29 9.7 19.3 0.00 0.00 0.00 57 271.1
20260510122254 13 24 9.7 19.3 0.00 0.00 0.00 58 275.6
20260510121238 13 31 8.0 19.3 0.00 0.00 0.00 59 254.7
20260510120738 13 32 8.0 19.3 0.00 0.00 0.00 59 257.3
20260510120237 13 26 8.0 19.3 0.00 0.00 0.00 59 260.5
20260510115737 13 24 8.0 19.3 0.00 0.00 0.00 59 248.4
20260510115237 13 31 6.4 19.3 0.00 0.00 0.00 59 252.6
20260510114221 13 21 6.4 19.3 0.00 0.00 0.00 60 261.1
20260510113720 13 42 6.4 19.3 0.00 0.00 0.00 60 285.8
20260510113219 13 43 8.0 19.3 0.00 0.00 0.00 60 289.3
20260510112719 13 43 8.0 19.3 0.00 0.00 0.00 60 302.1
20260510112219 13 51 6.4 19.3 0.00 0.00 0.00 60 316.6
20260510111719 14 60 6.4 19.3 0.00 0.00 0.00 60 327.2
20260510111218 14 67 6.4 19.3 0.00 0.00 0.00 59 309.0
20260510110718 14 39 9.7 19.3 0.00 0.00 0.00 59 283.9
20260510110217 14 48 6.4 19.3 0.00 0.00 0.00 59 291.6
20260510105200 14 48 9.7 19.3 0.00 0.00 0.00 61 286.9
20260510104659 15 43 8.0 19.3 0.00 0.00 0.00 62 283.3
20260510104159 15 44 9.7 19.3 0.00 0.00 0.00 63 284.1
20260510103659 15 44 8.0 19.3 0.00 0.00 0.00 63 284.6
20260510103158 15 42 8.0 19.3 0.00 0.00 0.00 63 280.2
20260510102657 15 37 11.3 20.9 0.00 0.00 0.00 64 277.7
20260510102156 15 37 8.0 20.9 0.00 0.00 0.00 65 279.9
20260510101656 15 37 11.3 22.5 0.00 0.00 0.00 66 283.0
20260510101154 15 25 11.3 22.5 0.00 0.00 0.00 67 280.7
20260510100653 15 28 11.3 22.5 0.00 0.00 0.00 67 269.5
20260510100153 15 37 11.3 22.5 0.00 0.00 0.00 68 271.8
20260510095652 15 33 9.7 22.5 0.00 0.00 0.00 68 268.4
20260510095151 15 31 8.0 22.5 0.00 0.00 0.00 69 267.0
20260510094650 15 38 9.7 22.5 0.00 0.00 0.00 69 273.7
20260510093633 15 22 11.3 22.5 0.00 0.00 0.00 69 261.9
20260510093132 15 24 8.0 22.5 0.00 0.00 0.00 70 251.9
20260510092631 15 24 6.4 22.5 0.00 0.00 0.00 69 250.2
20260510092130 16 18 8.0 22.5 0.00 0.00 0.00 69 264.8
20260510091114 16 19 8.0 22.5 0.00 0.00 0.00 68 260.7
20260510090613 16 26 8.0 22.5 0.00 0.00 0.00 67 252.8
20260510090113 16 22 6.4 22.5 0.00 0.00 0.00 67 240.4
20260510085613 16 31 8.0 22.5 0.00 0.00 0.00 67 251.5
20260510084558 16 31 8.0 22.5 0.00 0.00 0.00 66 253.8
20260510084057 16 27 6.4 22.5 0.00 0.00 0.00 66 261.1
20260510083556 16 35 6.4 22.5 0.00 0.00 0.00 66 266.3
20260510083055 16 43 6.4 22.5 0.00 0.00 0.00 66 262.2
20260510082554 16 32 6.4 22.5 0.00 0.00 0.00 66 249.4
20260510082054 16 26 6.4 22.5 0.00 0.00 0.00 66 250.6
20260510081554 16 32 4.8 22.5 0.00 0.00 0.00 66 264.4
20260510081052 16 38 4.8 22.5 0.00 0.00 0.00 66 265.0
20260510080552 17 32 6.4 22.5 0.00 0.00 0.00 67 272.9
20260510080051 17 40 6.4 22.5 0.00 0.00 0.00 66 285.6
20260510075550 17 46 6.4 22.5 0.00 0.00 0.00 67 290.0
20260510075050 17 37 8.0 22.5 0.00 0.00 0.00 67 287.6
20260510074549 17 47 6.4 22.5 0.00 0.00 0.00 68 302.8
20260510074049 17 57 6.4 22.5 0.00 0.00 0.00 68 300.2
20260510073548 17 44 6.4 22.5 0.00 0.00 0.00 69 287.6
20260510073047 17 44 6.4 22.5 0.00 0.00 0.00 69 292.5
20260510072547 17 53 6.4 22.5 0.00 0.00 0.00 68 298.2
20260510072046 17 46 6.4 22.5 0.00 0.00 0.00 68 290.5
20260510071545 17 36 4.8 22.5 0.00 0.00 0.00 68 294.1
20260510071044 17 51 4.8 22.5 0.00 0.00 0.00 68 311.2
20260510070028 17 55 6.4 22.5 0.00 0.00 0.00 68 314.0
20260510065529 17 56 4.8 22.5 0.00 0.00 0.00 69 308.6
20260510065028 17 55 6.4 22.5 0.00 0.00 0.00 70 300.2
20260510064528 17 48 6.4 22.5 0.00 0.00 0.00 71 285.8
20260510064027 17 52 6.4 22.5 0.00 0.00 0.00 74 274.2
20260510062455 17 7 8.0 22.5 0.00 0.00 0.00 74 230.8
20260510061955 17 17 6.4 22.5 0.00 0.00 0.00 73 257.8
20260510061455 17 18 3.2 22.5 0.00 0.00 0.00 73 293.9
20260510060956 17 27 3.2 22.5 0.00 0.00 0.00 73 364.7
20260510060455 17 105 3.2 22.5 0.00 0.00 0.00 73 478.0
20260510055953 17 109 1.6 22.5 0.00 0.00 0.00 73 484.4
20260510055454 17 110 0.0 22.5 0.00 0.00 0.00 72 485.5
20260510054952 18 110 0.0 22.5 0.00 0.00 0.00 72 486.0
20260510053936 18 110 1.6 22.5 0.00 0.00 0.00 69 486.1
20260510052919 18 110 1.6 22.5 0.00 0.00 0.00 70 485.9
20260510052419 18 110 3.2 22.5 0.00 0.00 0.00 69 486.6
20260510051918 18 110 1.6 22.5 0.00 0.00 0.00 69 487.3
20260510051417 18 110 0.0 22.5 0.00 0.00 0.00 67 487.6
20260510050916 18 110 0.0 22.5 0.00 0.00 0.00 67 487.6
20260510050414 17 110 0.0 22.5 0.00 0.00 0.00 69 487.2
20260510045913 18 110 0.0 22.5 0.00 0.00 0.00 71 486.5
20260510045413 18 110 0.0 22.5 0.00 0.00 0.00 70 486.1
20260510044912 18 110 0.0 22.5 0.00 0.00 0.00 69 486.0
20260510044411 18 110 0.0 22.5 0.00 0.00 0.00 68 485.9
20260510043910 18 110 0.0 22.5 0.00 0.00 0.00 68 486.7
20260510043410 18 110 0.0 22.5 0.00 0.00 0.00 67 487.0
20260510041839 19 110 0.0 22.5 0.00 0.00 0.00 63 487.3
20260510041338 19 110 0.0 22.5 0.00 0.00 0.00 63 486.9
20260510040837 19 110 0.0 22.5 0.00 0.00 0.00 65 485.9
20260510040337 19 110 0.0 22.5 0.00 0.00 0.00 67 485.3
20260510035837 20 110 0.0 22.5 0.00 0.00 0.00 62 486.2
20260510035336 20 110 0.0 22.5 0.00 0.00 0.00 61 486.4
20260510034835 20 110 0.0 22.5 0.00 0.00 0.00 60 486.0
20260510034334 20 110 0.0 22.5 0.00 0.00 0.00 57 484.6
20260510032801 21 108 0.0 22.5 0.00 0.00 0.00 56 473.7
20260510032300 21 108 0.0 22.5 0.00 0.00 0.00 56 469.0
20260510031800 21 110 0.0 22.5 0.00 0.00 0.00 56 460.4
20260510031300 21 109 0.0 22.5 0.00 0.00 0.00 56 438.2
20260510030759 21 110 0.0 22.5 0.00 0.00 0.00 55 396.9
20260510030258 21 83 3.2 22.5 0.00 0.00 0.00 54 327.8
20260510025242 21 49 3.2 22.5 0.00 0.00 0.00 56 265.8
20260510024742 21 28 3.2 22.5 0.00 0.00 0.00 55 253.4
20260510024241 21 33 4.8 22.5 0.00 0.00 0.00 55 262.4
20260510023740 21 31 4.8 22.5 0.00 0.00 0.00 55 259.7
20260510023239 21 37 4.8 22.5 0.00 0.00 0.00 54 267.6
20260510022738 21 42 4.8 22.5 0.00 0.00 0.00 53 263.1
20260510022237 22 33 4.8 22.5 0.00 0.00 0.00 53 252.2
20260510021737 22 29 4.8 22.5 0.00 0.00 0.00 52 246.0
20260510021236 22 27 4.8 22.5 0.00 0.00 0.00 51 253.8
20260510020735 22 29 6.4 22.5 0.00 0.00 0.00 50 265.2
20260510020234 23 26 6.4 22.5 0.00 0.00 0.00 49 275.6
20260510015734 23 29 6.4 22.5 0.00 0.00 0.00 48 289.6
20260510015233 23 24 8.0 22.5 0.00 0.00 0.00 48 313.9
20260510014733 23 22 8.0 22.5 0.00 0.00 0.00 48 342.4
20260510013202 23 5 16.1 29.0 0.00 0.00 0.00 50 556.2
20260510012145 24 0 9.7 17.7 0.00 0.00 0.00 51 827.5
20260510011644 24 359 8.0 17.7 0.00 0.00 0.00 51 894.9
20260510011143 25 357 8.0 17.7 0.00 0.00 0.00 49 1010.4
20260510010642 25 355 12.9 17.7 0.00 0.00 0.00 47 984.1
20260510010141 25 299 1.6 20.9 0.00 0.00 0.00 46 1044.5
20260510005640 25 298 0.0 20.9 0.00 0.00 0.00 47 1043.4
20260510005139 26 298 0.0 20.9 0.00 0.00 0.00 52 1041.5
20260510004639 26 298 0.0 20.9 0.00 0.00 0.00 46 1038.5
20260510004138 26 298 0.0 20.9 0.00 0.00 0.00 45 1034.7
20260510003637 27 296 0.0 20.9 0.00 0.00 0.00 42 1044.5
20260510003137 27 298 0.0 20.9 0.00 0.00 0.00 40 1048.9
20260510002636 27 299 0.0 20.9 0.00 0.00 0.00 41 1050.9
20260510002135 27 299 0.0 20.9 0.00 0.00 0.00 41 1051.0
20260510001635 27 299 1.6 20.9 0.00 0.00 0.00 40 1049.7
20260510001135 27 299 0.0 20.9 0.00 0.00 0.00 41 1048.9
20260510000635 27 298 0.0 20.9 0.00 0.00 0.00 40 1048.5
20260510000135 27 298 0.0 20.9 0.00 0.00 0.00 40 1046.4
20260509235634 27 298 0.0 20.9 0.00 0.00 0.00 42 1044.0
20260509235134 27 295 1.6 20.9 0.00 0.00 0.00 42 1034.6
20260509234633 27 294 1.6 20.9 0.00 0.00 0.00 41 1027.5
20260509234132 27 292 1.6 20.9 0.00 0.00 0.00 40 1019.0
20260509233632 27 291 3.2 20.9 0.00 0.00 0.00 39 1007.8
20260509233131 27 301 3.2 20.9 0.00 0.00 0.00 39 987.3
20260509232630 27 270 1.6 20.9 0.00 0.00 0.00 37 957.5
20260509232129 27 265 6.4 20.9 0.00 0.00 0.00 36 947.8
20260509231628 27 267 4.8 20.9 0.00 0.00 0.00 38 950.3
20260509230611 27 270 4.8 20.9 0.00 0.00 0.00 37 971.3
20260509230110 27 284 6.4 20.9 0.00 0.00 0.00 37 974.1
20260509225054 27 271 4.8 20.9 0.00 0.00 0.00 39 947.9
20260509224553 27 260 6.4 20.9 0.00 0.00 0.00 36 934.3
20260509223537 27 269 6.4 20.9 0.00 0.00 0.00 37 933.3
20260509223037 27 254 8.0 20.9 0.00 0.00 0.00 39 907.1
20260509222537 27 254 9.7 20.9 0.00 0.00 0.00 37 899.5
20260509222037 27 249 11.3 20.9 0.00 0.00 0.00 36 884.2
20260509221020 28 238 12.9 20.9 0.00 0.00 0.00 36 887.2
20260509220519 28 241 14.5 20.9 0.00 0.00 0.00 34 880.4
20260509215504 27 238 12.9 20.9 0.00 0.00 0.00 34 872.6
20260509215004 27 240 12.9 20.9 0.00 0.00 0.00 33 877.8
20260509214504 28 243 12.9 20.9 0.00 0.00 0.00 32 883.4
20260509214004 28 242 9.7 20.9 0.00 0.00 0.00 34 885.3
20260509213504 27 244 11.3 20.9 0.00 0.00 0.00 33 885.3
20260509213003 27 241 9.7 25.7 0.00 0.00 0.00 35 875.5
20260509212503 27 243 16.1 25.7 0.00 0.00 0.00 32 870.7
20260509212002 28 239 17.7 25.7 0.00 0.00 0.00 33 863.7
20260509211502 28 228 14.5 25.7 0.00 0.00 0.00 34 868.6
20260509210446 28 244 14.5 29.0 0.00 0.00 0.00 34 873.8
20260509205430 28 247 16.1 25.7 0.00 0.00 0.00 36 881.2
20260509204929 28 230 17.7 24.1 0.00 0.00 0.00 33 881.0